Time,TemperatureF,DewpointF,PressureIn,WindDirection,WindDirectionDegrees,WindSpeedMPH,WindSpeedGustMPH,Humidity,HourlyPrecipIn,Conditions,Clouds,dailyrainin,SolarRadiationWatts/m^2,SoftwareType,DateUTC
2015-06-30 00:02:00,83.5,73.1,29.92,South,190,3.8,8.1,71,0.00,CLR,,0.00,0.0,WeatherDisplay:10.37,2015-06-30 05:02:00,
2015-06-30 00:07:00,83.4,73.4,29.93,SSW,203,3.9,5.8,72,0.00,CLR,,0.00,0.0,WeatherDisplay:10.37,2015-06-30 05:07:00,
2015-06-30 00:12:00,83.3,73.3,29.93,SSW,194,5.3,8.1,72,0.00,CLR,,0.00,0.0,WeatherDisplay:10.37,2015-06-30 05:12:00,
2015-06-30 00:17:00,83.1,73.1,29.93,SSW,199,4.9,6.9,72,0.00,CLR,,0.00,0.0,WeatherDisplay:10.37,2015-06-30 05:17:00,
2015-06-30 00:22:00,83.0,73.0,29.94,SSW,197,3.7,6.9,72,0.00,CLR,,0.00,0.0,WeatherDisplay:10.37,2015-06-30 05:22:00,
2015-06-30 00:27:00,83.0,73.4,29.94,SSW,203,3.6,5.8,73,0.00,CLR,,0.00,0.0,WeatherDisplay:10.37,2015-06-30 05:27:00,
2015-06-30 00:32:00,82.9,73.4,29.94,SSW,209,3.1,5.9,73,0.00,CLR,,0.00,0.0,WeatherDisplay:10.37,2015-06-30 05:32:00,
2015-06-30 00:37:00,82.8,73.3,29.95,SW,225,4.8,6.9,73,0.00,CLR,,0.00,0.0,WeatherDisplay:10.37,2015-06-30 05:37:00,
2015-06-30 00:42:00,82.7,73.2,29.95,SW,232,5.4,6.9,73,0.00,CLR,,0.00,0.0,WeatherDisplay:10.37,2015-06-30 05:42:00,
2015-06-30 00:47:00,82.7,73.2,29.96,SW,222,4.6,8.1,73,0.00,CLR,,0.00,0.0,WeatherDisplay:10.37,2015-06-30 05:47:00,
2015-06-30 00:52:00,82.6,73.1,29.96,SSW,213,1.7,3.5,73,0.00,CLR,,0.00,0.0,WeatherDisplay:10.37,2015-06-30 05:52:00,
2015-06-30 00:57:00,82.5,73.4,29.95,SW,225,2.8,3.5,74,0.00,CLR,,0.00,0.0,WeatherDisplay:10.37,2015-06-30 05:57:00,
2015-06-30 01:02:00,82.4,73.3,29.95,WSW,239,6.7,10.4,74,0.00,CLR,,0.00,0.0,WeatherDisplay:10.37,2015-06-30 06:02:00,
2015-06-30 01:07:00,82.2,73.1,29.94,SW,233,5.7,10.4,74,0.00,CLR,,0.00,0.0,WeatherDisplay:10.37,2015-06-30 06:07:00,
2015-06-30 01:12:00,82.1,72.6,29.95,WSW,237,6.4,10.4,73,0.00,CLR,,0.00,0.0,WeatherDisplay:10.37,2015-06-30 06:12:00,
2015-06-30 01:17:00,82.1,72.6,29.95,SW,235,3.7,8.1,73,0.00,CLR,,0.00,0.0,WeatherDisplay:10.37,2015-06-30 06:17:00,
2015-06-30 01:22:00,82.0,72.5,29.95,WSW,252,6.3,8.1,73,0.00,CLR,,0.00,0.0,WeatherDisplay:10.37,2015-06-30 06:22:00,
2015-06-30 01:27:00,81.9,72.4,29.95,WSW,247,4.3,6.9,73,0.00,CLR,,0.00,0.0,WeatherDisplay:10.37,2015-06-30 06:27:00,
2015-06-30 01:32:00,81.8,72.3,29.95,SW,232,1.3,3.5,73,0.00,CLR,,0.00,0.0,WeatherDisplay:10.37,2015-06-30 06:32:00,
2015-06-30 01:37:00,81.6,72.1,29.96,SW,235,0.0,0.0,73,0.00,CLR,,0.00,0.0,WeatherDisplay:10.37,2015-06-30 06:37:00,
2015-06-30 01:42:00,81.5,72.0,29.97,SW,235,0.0,0.0,73,0.00,CLR,,0.00,0.0,WeatherDisplay:10.37,2015-06-30 06:42:00,
2015-06-30 01:47:00,81.4,72.3,29.97,NE,35,1.7,2.3,74,0.00,CLR,,0.00,0.0,WeatherDisplay:10.37,2015-06-30 06:47:00,
2015-06-30 01:52:00,81.5,72.4,29.98,ENE,71,4.0,5.8,74,0.00,CLR,,0.00,0.0,WeatherDisplay:10.37,2015-06-30 06:52:00,
2015-06-30 01:57:00,81.6,72.5,30.00,NNE,31,26.4,31.4,74,0.00,CLR,,0.00,0.0,WeatherDisplay:10.37,2015-06-30 06:57:00,
2015-06-30 02:02:00,78.2,63.6,30.02,ENE,62,29.1,36.8,61,0.00,CLR,,0.00,0.0,WeatherDisplay:10.37,2015-06-30 07:02:00,
2015-06-30 02:07:00,76.0,62.9,30.01,ENE,64,21.0,29.9,64,0.00,,,0.00,0.0,WeatherDisplay:10.37,2015-06-30 07:07:00,
2015-06-30 02:12:00,75.1,61.6,30.02,North,5,22.4,29.9,63,0.00,CLR,,0.00,0.0,WeatherDisplay:10.37,2015-06-30 07:12:00,
2015-06-30 02:17:00,75.3,61.4,30.04,East,86,36.6,58.7,62,0.00,,,0.00,0.0,WeatherDisplay:10.37,2015-06-30 07:17:00,
2015-06-30 02:22:00,75.0,62.4,30.03,NNE,31,13.0,24.2,65,0.00,CLR,,0.00,0.0,WeatherDisplay:10.37,2015-06-30 07:22:00,
2015-06-30 02:27:00,73.8,62.6,30.03,East,88,22.9,24.2,68,0.00,CLR,,0.00,0.0,WeatherDisplay:10.37,2015-06-30 07:27:00,
2015-06-30 02:32:00,71.6,63.6,30.01,NE,51,18.9,34.5,76,0.00,CLR,,0.00,0.0,WeatherDisplay:10.37,2015-06-30 07:32:00,
2015-06-30 02:37:00,70.0,63.5,30.01,ESE,102,18.5,39.1,80,0.00,CLR,,0.00,0.0,WeatherDisplay:10.37,2015-06-30 07:37:00,
2015-06-30 02:42:00,69.0,63.6,30.00,ESE,113,14.7,23.0,83,0.00,CLR,,0.00,0.0,WeatherDisplay:10.37,2015-06-30 07:42:00,
2015-06-30 02:47:00,68.9,63.9,30.00,ENE,72,14.5,24.2,84,0.00,CLR,,0.00,0.0,WeatherDisplay:10.37,2015-06-30 07:47:00,
2015-06-30 02:52:00,68.8,63.8,30.00,East,79,15.2,19.6,84,0.02,RA,,0.02,0.0,WeatherDisplay:10.37,2015-06-30 07:52:00,
2015-06-30 02:57:00,68.7,64.0,29.99,East,81,13.3,21.6,85,0.02,RA,,0.02,0.0,WeatherDisplay:10.37,2015-06-30 07:57:00,
2015-06-30 03:02:00,68.8,64.1,29.99,East,84,10.5,17.3,85,0.02,,,0.02,0.0,WeatherDisplay:10.37,2015-06-30 08:02:00,
2015-06-30 03:07:00,68.8,64.1,29.98,ESE,123,7.6,10.4,85,0.02,CLR,,0.02,0.0,WeatherDisplay:10.37,2015-06-30 08:07:00,
2015-06-30 03:12:00,68.8,64.4,29.98,ESE,102,6.1,10.4,86,0.02,CLR,,0.02,0.0,WeatherDisplay:10.37,2015-06-30 08:12:00,
2015-06-30 03:17:00,68.8,64.4,29.96,East,93,2.8,5.8,86,0.02,CLR,,0.02,0.0,WeatherDisplay:10.37,2015-06-30 08:17:00,
2015-06-30 03:22:00,68.9,64.2,29.96,East,95,5.1,9.2,85,0.02,CLR,,0.02,0.0,WeatherDisplay:10.37,2015-06-30 08:22:00,
2015-06-30 03:27:00,69.1,64.4,29.96,SSW,196,1.4,3.9,85,0.02,CLR,,0.02,0.0,WeatherDisplay:10.37,2015-06-30 08:27:00,
2015-06-30 03:32:00,69.2,64.8,29.95,SSW,202,2.7,5.8,86,0.02,CLR,,0.02,0.0,WeatherDisplay:10.37,2015-06-30 08:32:00,
2015-06-30 03:37:00,69.2,64.8,29.96,SW,219,4.5,6.9,86,0.02,CLR,,0.02,0.0,WeatherDisplay:10.37,2015-06-30 08:37:00,
2015-06-30 03:42:00,69.3,64.9,29.96,SW,231,3.5,5.8,86,0.02,CLR,,0.02,0.0,WeatherDisplay:10.37,2015-06-30 08:42:00,
2015-06-30 03:47:00,69.4,65.0,29.95,SSW,213,0.0,0.0,86,0.02,CLR,,0.02,0.0,WeatherDisplay:10.37,2015-06-30 08:47:00,
2015-06-30 03:52:00,69.4,65.0,29.94,WSW,239,3.9,5.8,86,0.00,CLR,,0.02,0.0,WeatherDisplay:10.37,2015-06-30 08:52:00,
2015-06-30 03:57:00,69.4,65.4,29.94,WSW,247,0.4,1.2,87,0.00,CLR,,0.02,0.0,WeatherDisplay:10.37,2015-06-30 08:57:00,
2015-06-30 04:02:00,69.4,65.4,29.94,NNE,31,1.2,3.5,87,0.00,CLR,,0.02,0.0,WeatherDisplay:10.37,2015-06-30 09:02:00,
2015-06-30 04:07:00,69.4,65.4,29.94,NW,313,0.0,2.3,87,0.00,CLR,,0.02,0.0,WeatherDisplay:10.37,2015-06-30 09:07:00,
2015-06-30 04:12:00,69.3,65.6,29.94,WSW,249,5.4,5.8,88,0.00,CLR,,0.02,0.0,WeatherDisplay:10.37,2015-06-30 09:12:00,
2015-06-30 04:17:00,69.3,65.3,29.94,SW,231,7.3,10.4,87,0.00,CLR,,0.02,0.0,WeatherDisplay:10.37,2015-06-30 09:17:00,
2015-06-30 04:22:00,69.4,65.4,29.94,SW,228,5.8,8.1,87,0.00,CLR,,0.02,0.0,WeatherDisplay:10.37,2015-06-30 09:22:00,
2015-06-30 04:27:00,69.6,65.2,29.94,SSW,211,6.0,8.8,86,0.00,CLR,,0.02,0.0,WeatherDisplay:10.37,2015-06-30 09:27:00,
2015-06-30 04:32:00,69.8,65.1,29.93,WSW,237,5.2,9.2,85,0.00,CLR,,0.02,0.0,WeatherDisplay:10.37,2015-06-30 09:32:00,
2015-06-30 04:37:00,69.9,65.2,29.93,SSW,202,4.2,6.9,85,0.00,CLR,,0.02,0.0,WeatherDisplay:10.37,2015-06-30 09:37:00,
2015-06-30 04:42:00,70.1,65.4,29.94,SSW,208,10.2,12.7,85,0.00,CLR,,0.02,0.0,WeatherDisplay:10.37,2015-06-30 09:42:00,
2015-06-30 04:47:00,70.3,65.6,29.94,SW,219,9.9,15.0,85,0.00,CLR,,0.02,0.0,WeatherDisplay:10.37,2015-06-30 09:47:00,
2015-06-30 04:52:00,70.6,65.9,29.93,South,180,12.9,17.3,85,0.00,CLR,,0.02,0.0,WeatherDisplay:10.37,2015-06-30 09:52:00,
2015-06-30 04:57:00,70.8,66.1,29.93,SW,229,10.1,16.1,85,0.00,CLR,,0.02,0.0,WeatherDisplay:10.37,2015-06-30 09:57:00,
2015-06-30 05:02:00,70.9,65.8,29.93,SSW,198,6.0,12.7,84,0.00,CLR,,0.02,0.0,WeatherDisplay:10.37,2015-06-30 10:02:00,
2015-06-30 05:07:00,71.0,65.9,29.94,SSW,200,10.2,13.8,84,0.00,CLR,,0.02,0.0,WeatherDisplay:10.37,2015-06-30 10:07:00,
2015-06-30 05:12:00,71.0,65.9,29.94,WSW,249,8.7,15.0,84,0.00,CLR,,0.02,0.0,WeatherDisplay:10.37,2015-06-30 10:12:00,
2015-06-30 05:17:00,71.1,66.0,29.94,SSW,211,12.6,15.0,84,0.00,CLR,,0.02,0.0,WeatherDisplay:10.37,2015-06-30 10:17:00,
2015-06-30 05:22:00,71.1,66.0,29.94,WSW,238,11.6,15.7,84,0.00,CLR,,0.02,0.0,WeatherDisplay:10.37,2015-06-30 10:22:00,
2015-06-30 05:27:00,71.2,65.8,29.94,WSW,240,11.8,16.1,83,0.00,CLR,,0.02,0.0,WeatherDisplay:10.37,2015-06-30 10:27:00,
2015-06-30 05:32:00,71.3,65.9,29.95,SSW,204,7.3,10.4,83,0.00,CLR,,0.02,0.0,WeatherDisplay:10.37,2015-06-30 10:32:00,
2015-06-30 05:37:00,71.3,65.9,29.95,SW,230,10.2,12.7,83,0.00,CLR,,0.02,0.0,WeatherDisplay:10.37,2015-06-30 10:37:00,
2015-06-30 05:42:00,71.4,66.0,29.95,SW,231,8.9,12.7,83,0.00,CLR,,0.02,0.0,WeatherDisplay:10.37,2015-06-30 10:42:00,
2015-06-30 05:47:00,71.4,66.0,29.95,SW,230,7.1,16.1,83,0.00,CLR,,0.02,0.0,WeatherDisplay:10.37,2015-06-30 10:47:00,
2015-06-30 05:52:00,71.5,66.1,29.96,SSW,204,6.6,10.4,83,0.00,CLR,,0.02,0.0,WeatherDisplay:10.37,2015-06-30 10:52:00,
2015-06-30 05:57:00,71.5,66.1,29.96,SW,232,10.5,15.0,83,0.00,CLR,,0.02,0.0,WeatherDisplay:10.37,2015-06-30 10:57:00,